Regional Weather Roundup
Issued by NWS

Home | Current Version | Previous Version | Graphics & Text | Print | Product List | Glossary On
Versions: 1 2 3 4 5 6 7 8 9 10 11 12 13 14 15 16 17 18 19 20 21 22 23 24 25 26 27 28 29 30 31 32 33 34 35 36 37 38 39 40 41 42 43 44 45 46 47 48 49 50
000
ASUS43 KMKX 171100
RWRWI

WISCONSIN REGIONAL WEATHER ROUNDUP
NATIONAL WEATHER SERVICE MILWAUKEE/SULLIVAN WI
600 AM CDT THU AUG 17 2017

NOTE: "FAIR" INDICATES FEW OR NO CLOUDS BELOW 12,000 FEET WITH NO
SIGNIFICANT WEATHER AND/OR OBSTRUCTIONS TO VISIBILITY.

WIZ001-002-006>008-014>016-023>028-171200-
NORTHWEST WISCONSIN

CITY           SKY/WX    TMP DP  RH WIND       PRES   REMARKS
SUPERIOR ARPT    N/A     61  61  99 NE12G23   29.62S
ASHLAND        CLOUDY    62  61  96 NE10      29.63F
HAYWARD        CLOUDY    65  62  90 E9        29.59F
SIREN          RAIN      66  65  96 SE5       29.56S
CUMBERLAND     CLOUDY    64  63  94 SE5       29.56F
RICE LAKE      CLOUDY    67  65  94 SE8       29.58F FOG
CHETEK         CLOUDY    67  65  94 S7        29.57F
LADYSMITH      CLOUDY    66  65  97 SE7       29.61F
EAU CLAIRE     CLOUDY    67  65  93 S9        29.56F
MENOMONIE      CLOUDY    67  65  94 SE8       29.56S
NEW RICHMOND   RAIN      66  65  97 SE7       29.53F
OSCEOLA        CLOUDY    66  66 100 E7        29.55S
$$

WIZ003>005-009-010-017-018-171200-
NORTH CENTRAL WISCONSIN

CITY           SKY/WX    TMP DP  RH WIND       PRES   REMARKS
MANITOWISH WTR CLOUDY    62  62 100 E7        29.67F
ARBOR VITAE    CLOUDY    63  62  96 E5        29.66F
WOODRUFF       CLOUDY    63  62  96 E5        29.66F
RHINELANDER    CLOUDY    63  63 100 E6        29.66F FOG
EAGLE RIVER    DRIZZLE   64  64 100 SE3       29.68S
LAND O LAKES   HVY RAIN  64  64  98 CALM      29.70F
PHILLIPS       CLOUDY    63  63 100 E5        29.62F
TOMAHAWK         N/A     64  62  96 CALM      29.65F FOG
MEDFORD        CLOUDY    65  65  99 SE6       29.62F FOG
MERRILL        CLOUDY    64  64 100 SE8       29.65F FOG
$$

WIZ029-030-035-036-043>047-171200-
CENTRAL WISCONSIN

CITY           SKY/WX    TMP DP  RH WIND       PRES   REMARKS
WAUSAU         CLOUDY    66  66 100 SE5       29.62F FOG
MOSINEE        FOG       66  66 100 SE5       29.65F VSB 1
MARSHFIELD     MOCLDY    69  67  93 S7        29.62S
STEVENS POINT  CLOUDY    69  69 100 S6        29.64F FOG
WAUPACA        CLOUDY    73  72  98 SE7       29.66S FOG
WAUTOMA        CLOUDY    72  71  97 S8        29.66
WISC RAPIDS    CLOUDY    71  71 100 S7        29.64S
CAMP DOUGLAS   CLEAR     69  68  96 SW3       29.64R
$$

WIZ011>013-019>022-031-037>040-048>050-171200-
NORTHEAST WISCONSIN

CITY           SKY/WX    TMP DP  RH WIND       PRES   REMARKS
ANTIGO         FOG       64  64 100 SE6       29.67F VSB 1/4
SHAWANO        CLOUDY    72  69  93 SE6       29.65F FOG
OCONTO         CLOUDY    71  70  97 S7        29.67F
STURGEON BAY   CLOUDY    70  69  97 S12       29.70  FOG
GREEN BAY      LGT RAIN  72  72 100 S7        29.67F FOG
MANITOWOC      NOT AVBL
APPLETON       CLOUDY    72  72 100 S10       29.66F FOG
CLINTONVILLE   CLOUDY    70  68  94 SE7       29.65F FOG
OSHKOSH        TSTM      72  69  90 S12       29.67
$$

WIZ032>034-041-042-053>061-171200-
SOUTHWEST WISCONSIN

CITY           SKY/WX    TMP DP  RH WIND       PRES   REMARKS
LA CROSSE      CLOUDY    71  65  81 S10       29.61S
SPARTA         MOCLDY    67  64  88 S3        29.64S
VIROQUA        CLOUDY    66  66  98 SW8       29.67S
BOSCOBEL       CLEAR     70  65  84 SW8       29.67
PRAIRIE DU CHI CLOUDY    68  64  85 SW12      29.68R
PLATTEVILLE    CLEAR     68  68 100 SW6       29.71S
$$

WIZ056-057-062-063-064-067-068-171200-
SOUTH CENTRAL WISCONSIN

CITY           SKY/WX    TMP DP  RH WIND       PRES   REMARKS
REEDSBURG      CLOUDY    69  69 100 S6        29.66S
BARABOO/DELLS  CLOUDY    71  67  88 SW9       29.67S
LONE ROCK      NOT AVBL
MINERAL POINT  CLEAR     70  70 100 SW8       29.71S
MADISON        MOCLDY    73  71  93 S12       29.69
MIDDLETON      MOCLDY    74  74 100 SW7       29.70S
WATERTOWN      CLOUDY    72  72 100 S8        29.71S
MONROE         CLOUDY    70  70 100 S9        29.73S
JANESVILLE     CLOUDY    72  72 100 S9        29.73S
$$

WIZ051-052-058>065-066-070>072-171200-
SOUTHEAST WISCONSIN

CITY           SKY/WX    TMP DP  RH WIND       PRES   REMARKS
MILWAUKEE      CLOUDY    73  71  93 SW13      29.74
WAUKESHA       CLOUDY    70  70 100 SW9       29.75S
MILWAUKEE/TIMM RAIN      72  66  83 S8        29.74R
RACINE         CLOUDY    72  70  93 SW10      29.76
KENOSHA        MOCLDY    72  68  87 SW12      29.76
FOND DU LAC    HVY RAIN  71  68  90 S6        29.68  FOG
SHEBOYGAN      CLOUDY    73  73 100 S12       29.71  FOG
WEST BEND      DRIZZLE   72  72 100 S10G16    29.72R
JUNEAU         CLOUDY    72  71  96 S9        29.72R
$$

LSZ147-162-171200-
LAKE SUPERIOR

STATION/POSITION TIME  TEMP    WIND        PRES    WAVE
                       AIR SEA DIR/SP/G            HT/PER
                 (UTC) (F)     (DEG/KT/KT) (MB)    (FT/S)
W MID LAKE BUOY  0950   61 60   60/ 10/ 12 1006.9R   2/ 4
DEVILS ISLAND    1000   61      80/ 24/ 28 1004.9S
SAXON HARBOR     1030   63      70/  5/  8 1003.4F
$$

LMZ867-665-643>646-171200-
LAKE MICHIGAN

STATION/POSITION TIME  TEMP    WIND        PRES    WAVE
                       AIR SEA DIR/SP/G            HT/PER
                 (UTC) (F)     (DEG/KT/KT) (MB)    (FT/S)
S GREEN BAY BUOY 1030   72 71  150/ 14/ 17 1004.9F
N MID LAKE BUOY  0950   67 68  130/ 16/ 19 1007.5F   2/ 4
NORTHPORT PIER   1040   70     140/ 19/ 26 1005.8F
KEWAUNEE LAKESHO 1030   70     170/  9/ 11 1005.1S
SHEBOYGAN LAKESH 1000   72     180/ 15/ 17 1005.2F
PORT WASHINGTON  1030   74     190/  8/ 11 1007.5R
ATWATER BUOY     0909   74 71  190/ 14/ 17 1007.0F
MILWAUKEE LAKESH 1050   72     210/ 15/ 17   N/A
S MID LAKE BUOY  0950   74 71  160/ 16/ 16 1007.4F   2/ 4
KENOSHA   LAKESH 1000   73     210/ 10/ 15 1007.5
$$

TC  - TEMPERATURE IN CELSIUS
VSB - VISIBILITY IN STATUTE MILES
WCI - WIND CHILL INDEX
HX  - HEAT INDEX





USA.gov is the U.S. government's official web portal to all federal, state and local government web resources and services.